Regional Weather Roundup
Issued by NWS Boston, MA

Current Version | Previous Version | Graphics & Text | Print | Product List | Glossary On
Versions: 1 2 3 4 5 6 7 8 9 10 11 12 13 14 15 16 17 18 19 20 21 22 23 24 25 26 27 28 29 30 31 32 33 34 35 36 37 38 39 40 41 42 43 44 45 46 47 48 49
000
ASUS41 KBOX 071304
RWRBOX

REGIONAL WEATHER ROUNDUP
NATIONAL WEATHER SERVICE BOSTON/NORTON MA
800 AM EST SUN MAR 07 2021

NOTE:  "FAIR" INDICATES FEW OR NO CLOUDS BELOW 12,000 FEET WITH NO
SIGNIFICANT WEATHER AND/OR OBSTRUCTIONS TO VISIBILITY.

MAZALL-071400-
EASTERN MASSACHUSETTS

CITY           SKY/WX    TMP DP  RH WIND       PRES   REMARKS
BOSTON         MOSUNNY   25   5  42 NW10      30.28R WCI  15
BEVERLY        SUNNY     23   7  50 NW8       30.26R WCI  14
LAWRENCE       SUNNY     21   7  54 NW10      30.28R WCI  10
BEDFORD        SUNNY     22   6  50 W9        30.27R WCI  12
BLUE HILL        N/A     19   6  57 NW8G17    30.22R WCI   9
NORWOOD        SUNNY     25   6  44 W13       30.28R WCI  14
MARSHFIELD     SUNNY     25   9  50 VRB7      30.27S WCI  17
PLYMOUTH       SUNNY     23   7  50 NW7G20    30.26R WCI  15
TAUNTON        SUNNY     25   7  46 NW9       30.27R WCI  15
NEW BEDFORD    SUNNY     25   6  44 NW8       30.28R WCI  16
$$

MAZALL-071400-
CAPE COD AND THE ISLANDS

CITY           SKY/WX    TMP DP  RH WIND       PRES   REMARKS
FALMOUTH       SUNNY     23   5  46 NW10      30.27R WCI  12
HYANNIS        SUNNY     26  10  50 NW9G17    30.25R WCI  17
CHATHAM        MOSUNNY   27  13  55 NW8G16    30.26R WCI  19
PROVINCETOWN   MOSUNNY   25  13  60 NW16G23   30.27R WCI  12
NANTUCKET      SUNNY     25  16  68 NW12      30.25R WCI  14
MARTHAS VNYRD  SUNNY     26  10  50 NW10      30.27R WCI  16
$$

MAZALL-071400-
CENTRAL AND WESTERN MASSACHUSETTS

CITY           SKY/WX    TMP DP  RH WIND       PRES   REMARKS
WORCESTER      SUNNY     20   4  50 NW10      30.21R WCI   9
FITCHBURG      SUNNY     21   8  57 NW9       30.27R WCI  11
ORANGE         SUNNY     17   9  70 CALM      30.26R
SPRINGFIELD    MOSUNNY   23   8  52 NW7       30.27R WCI  14
WESTFIELD      SUNNY     23  10  57 NW9       30.28R WCI  13
NORTH ADAMS    SUNNY     20   5  52 VRB6      30.27R WCI  12
PITTSFIELD     SUNNY     18   7  62 NW7       30.21R WCI   9
$$

RIZALL-071400-
RHODE ISLAND

CITY           SKY/WX    TMP DP  RH WIND       PRES   REMARKS
PROVIDENCE     MOSUNNY   25   6  44 NW6       30.29R WCI  18
NEWPORT        SUNNY     24   6  46 NW12      30.28R WCI  13
BLOCK ISLAND   SUNNY     24   9  52 N9        30.31R WCI  14
SMITHFIELD     SUNNY     21   8  57 NW7       30.27R WCI  12
WESTERLY       SUNNY     23   6  48 VRB6      30.31R WCI  16
$$

CTZALL-071400-
CONNECTICUT

CITY           SKY/WX    TMP DP  RH WIND       PRES   REMARKS
BRADLEY INTL   SUNNY     24  10  55 NW9       30.30R WCI  14
HARTFORD       SUNNY     26   9  48 NW6       30.32R WCI  19
BRIDGEPORT     MOSUNNY   28  12  51 W3        30.32R
DANBURY        SUNNY     27  12  53 CALM      30.30R
GROTON         SUNNY     26   9  48 MISG      30.31R
NEW HAVEN      SUNNY     28  13  53 NW8G17    30.32R WCI  20
CHESTER        FAIR      27   7  43 NW10      30.28R WCI  17
MERIDEN        SUNNY     26  10  50 N7        30.31R WCI  18
WILLIMANTIC    SUNNY     22  10  60 CALM      30.29R
OXFORD         MOSUNNY   23  14  68 VRB3      30.28R
$$

MEZ002-015-021-024-NHZ003-005-008-011-012-014-VTZ005-008-071400-
NORTHERN NEW ENGLAND

CITY           SKY/WX    TMP DP  RH WIND       PRES   REMARKS
PORTLAND ME    MOSUNNY   20   8  60 CALM      30.24R
BANGOR ME      MOSUNNY   17   5  59 VRB3      30.22R
CONCORD NH     SUNNY     19   4  51 NW10      30.24R WCI   7
MANCHESTER NH  MOSUNNY   21   5  50 W12       30.24R WCI   9
NASHUA NH      SUNNY     20   8  60 NW6       30.27R WCI  12
PORTSMOUTH NH  MOSUNNY   21   1  42 NW6       30.24R WCI  13
JAFFREY NH     SUNNY     18   3  52 N8        30.20R WCI   8
KEENE NH       SUNNY     16   8  71 CALM      30.27R
BURLINGTON VT  CLOUDY    17   7  64 CALM      30.30R
MT. WASHINGTON PTSUNNY    3   0  85 NW17        N/A  WCI -17
$$

NYZ052-076-071400-
EASTERN NEW YORK

CITY           SKY/WX    TMP DP  RH WIND       PRES   REMARKS
ALBANY         MOSUNNY   19   9  65 NW10      30.32R WCI   7
NEW YORK CITY  MOSUNNY   31  13  47 NW12      30.33R WCI  22
$$

ANZALL-071400-
MARINE OBSERVATIONS

STATION/POSITION TIME  TEMP    WIND        PRES    VSBY  WAVE
                       AIR SEA DIR/SP/G                  HT/PER
                 (UTC) (F)     (DEG/KT/KT) (MB)    (MI)  (FT/S)
BOSTON BUOY      1240      40  300/ 17/ 21 1025.4R
BUZZARDS BAY     1200          330/ 16/ 18 1026.0R
NANTUCKET SOUND  1240      35  320/ 16/ 17   N/A
MASS BAY-STELLWA 1204   23     310/ 17/ 21 1023.2R  1 7/8  2/ 3
ISLE OF SHOALS   1200   20     300/ 17/ 18 1023.4R
S OF BLOCK IS    1226      41                N/A           5/ 5
$$

......................KEY.........................
  SKY/WX - SKY CONDITION/PRESENT WEATHER
  TMP    - TEMPERATURE IN FAHRENHEIT
  DWPT   - DEWPOINT IN FAHRENHEIT
  RH     - RELATIVE HUMIDITY IN PERCENT
  WIND   - DIRECTION AND SPEED IN MPH
  PRES   - MEAN SEA LEVEL PRESSURE IN INCHES OF HG
  WCI    - WIND CHILL INDEX
  VSB    - VISIBILITY IN MILES
  HX     - HEAT INDEX
  TC     - TEMPERATURE IN CELSIUS
  VRB    - VARIABLE WIND DIRECTION
  N/A    - NOT AVAILABLE



USA.gov is the U.S. government's official web portal to all federal, state and local government web resources and services.